Location: Excel
(51.3833°N, 110.5667°W)
Time: 20:56:26
(UTC+00:00)

Envisat - Pass Details

Date: 04 December 2021
Orbit: 764 x 766 km, 98.2° (Epoch: 26 January)

Event Time Altitude Azimuth Distance (km) Brightness Sun altitude
Rises 12:10:49 0° 17° (NNE) 3,247 6.4 -26.8°
Reaches altitude 10° 12:13:12 10° 22° (NNE) 2,316 5.7 -26.4°
Maximum altitude 12:18:13 55° 100° (E) 916 3.6 -25.6°
Drops below altitude 10° 12:23:11 10° 179° (S) 2,298 5.5 -24.8°
Sets 12:25:31 0° 183° (S) 3,219 6.3 -24.5°
